Temp
9 9 9 9 9 9 9 10 10 10 9 9 9 9 9 9 9 10 10 9 9 9 9 9 8 8 8 8 7 7 6 6 6 6 6 5 5 5 5 5 5 5 4
9 9 9 9 9 9 9 9 8 8 8 8 9 9 8 9 9 9 9 9 7 7 8 8 8 8 7 6 6 6 6 6 5 5 5 5 4 4 4 4 4 4 3
9 9 8 9 9 9 9 9 9 8 8 8 8 8 7 7 6 6 6 6 6 7 7 7 6 6 6 6 6 5 5 5 5 5 4 4 4 4 4 3 3 3 3
9 9 9 9 9 9 8 8 8 8 7 7 6 7 8 7 6 6 6 6 6 6 6 6 6 6 5 5 5 4 4 4 4 4 3 3 3 3 3 2 1 1 1
8 8 8 8 9 9 8 8 8 8 6 6 6 6 6 6 6 6 6 5 6 5 5 5 4 4 4 4 4 4 4 3 3 3 3 2 2 0 0 0 -0 -1 -0
8 8 8 8 8 8 7 7 7 7 6 6 6 6 6 6 6 5 5 5 5 5 4 4 4 4 4 3 3 3 3 3 2 2 1 1 -0 -1 -1 -0 -1 -1 -1
8 7 7 7 7 6 6 6 5 6 6 6 6 6 6 6 5 5 5 5 4 4 4 3 3 3 3 3 2 2 2 2 1 1 -0 -0 -1 -2 -3 -3 -2 -2 -2
6 6 6 7 7 7 7 6 6 6 5 5 5 5 5 5 5 4 4 4 4 3 3 3 2 2 2 1 -0 -0 -1 -1 -1 -2 -1 -2 -2 -3 -3 -3 -3 -3 -2
6 6 5 5 4 4 4 4 3 4 5 5 5 5 5 5 4 4 4 4 3 3 3 2 1 0 0 1 0 -1 -1 -2 -2 -2 -3 -3 -3 -2 -2 -3 -3 -3 -2
7 7 7 7 7 6 5 5 4 4 4 4 3 2 4 4 4 4 3 3 2 2 1 2 1 -0 1 0 -1 -1 -2 -2 -3 -3 -4 -4 -3 -4 -3 -3 -4 -4 -4
6 6 6 5 5 5 5 5 5 5 4 3 3 3 3 4 3 3 3 0 -0 -1 -1 -2 -2 -1 -2 -2 -2 -2 -2 -3 -3 -4 -4 -4 -4 -4 -4 -4 -5 -4 -5
7 7 7 8 7 7 7 7 6 6 5 4 3 3 2 3 3 3 2 2 1 -2 -2 -3 -3 -3 -3 -3 -3 -3 -3 -4 -4 -4 -5 -5 -5 -5 -5 -5 -5 -5 -5
8 8 8 7 7 6 6 5 5 5 5 4 3 2 2 1 2 2 2 1 0 -2 -3 -3 -3 -4 -4 -4 -4 -4 -4 -4 -5 -5 -5 -5 -5 -5 -5 -5 -5 -5 -5
9 8 7 7 7 7 6 6 5 5 4 2 2 1 1 2 1 1 1 0 -0 -2 -2 -3 -4 -5 -5 -5 -5 -5 -5 -5 -5 -5 -5 -5 -5 -5 -5 -5 -5 -5 -5
8 8 7 6 7 6 5 5 5 4 4 4 3 3 3 2 1 1 0 -1 -3 -3 -3 -4 -4 -5 -5 -5 -5 -5 -5 -6 -5 -5 -5 -5 -5 -5 -5 -5 -6 -6 -6
8 7 7 7 7 6 5 4 4 4 4 4 3 3 3 2 2 1 1 -0 -1 -1 -3 -4 -5 -5 -5 -5 -5 -5 -6 -6 -6 -5 -5 -5 -5 -5 -6 -6 -6 -6 -6
8 8 7 7 7 6 5 6 6 5 4 3 3 2 2 2 2 1 1 -0 -0 -1 -3 -4 -5 -5 -5 -6 -6 -6 -6 -5 -6 -5 -6 -6 -6 -6 -6 -5 -6 -6 -6
8 8 8 8 7 7 6 6 5 5 5 4 4 3 2 2 1 1 0 -0 -2 -3 -5 -5 -5 -5 -6 -6 -6 -6 -6 -6 -6 -6 -6 -6 -6 -6 -6 -6 -6 -6 -6
9 8 8 8 7 7 6 6 5 5 5 4 4 3 2 2 1 1 0 -1 -2 -4 -4 -5 -6 -6 -6 -6 -6 -6 -6 -6 -6 -6 -6 -6 -6 -6 -6 -6 -7 -6 -6
9 9 9 8 7 7 6 6 5 5 4 3 3 3 3 2 2 1 0 -1 -3 -4 -4 -5 -5 -6 -6 -6 -6 -7 -7 -7 -7 -7 -7 -7 -7 -7 -7 -6 -6 -6 -6
10 8 8 7 7 7 6 6 5 5 4 3 3 3 3 2 1 0 -1 -2 -3 -3 -3 -4 -4 -5 -6 -7 -7 -7 -7 -7 -7 -7 -7 -7 -7 -7 -7 -7 -7 -7 -7
10 9 8 8 6 6 6 6 5 4 4 3 3 2 2 1 0 -2 -2 -2 -2 -3 -3 -4 -4 -4 -5 -7 -7 -7 -7 -8 -8 -7 -7 -7 -7 -8 -7 -7 -7 -7 -7
10 9 8 7 6 5 5 5 5 4 4 3 3 2 2 0 -2 -2 -1 -2 -2 -3 -3 -4 -4 -4 -5 -6 -6 -7 -8 -8 -8 -8 -8 -8 -8 -8 -7 -7 -7 -7 -7
10 9 8 6 5 5 4 4 4 4 4 4 3 2 1 -1 -1 -2 -1 -2 -2 -3 -3 -4 -4 -4 -5 -5 -6 -7 -8 -8 -7 -7 -7 -7 -7 -8 -8 -8 -8 -8 -8
10 9 8 7 5 5 4 4 4 4 4 4 3 1 -0 -1 -2 -1 -1 -2 -2 -3 -4 -4 -4 -4 -5 -6 -6 -6 -6 -6 -6 -6 -7 -8 -8 -8 -8 -8 -8 -7 -7
10 8 7 6 6 4 4 3 3 4 3 2 2 1 0 -1 -1 -1 -1 -2 -2 -3 -4 -4 -4 -4 -5 -5 -5 -5 -5 -5 -6 -6 -7 -8 -8 -8 -8 -8 -8 -8 -8
Height
1479 1480 1481 1482 1483 1486 1489 1493 1496 1498 1501 1503 1506 1510 1516 1521 1525 1529 1532 1537 1541 1545 1548 1549 1552 1555 1557 1558 1560 1562 1564 1564 1564 1562 1561 1562 1561 1561 1561 1560 1558 1556 1555
1482 1484 1485 1485 1487 1489 1491 1494 1496 1500 1503 1505 1507 1510 1515 1520 1521 1526 1530 1534 1540 1543 1546 1548 1550 1551 1552 1554 1555 1556 1556 1557 1557 1558 1558 1558 1558 1559 1558 1559 1554 1552 1549
1485 1486 1487 1488 1490 1494 1496 1498 1501 1503 1506 1508 1510 1512 1516 1519 1522 1525 1530 1534 1538 1541 1542 1544 1547 1549 1550 1551 1551 1551 1552 1553 1554 1555 1557 1556 1557 1557 1554 1552 1552 1549 1546
1487 1488 1490 1491 1494 1496 1498 1501 1504 1507 1508 1511 1512 1514 1516 1520 1524 1527 1531 1535 1537 1539 1541 1542 1543 1546 1547 1548 1547 1548 1549 1550 1551 1551 1551 1552 1553 1553 1551 1548 1547 1545 1544
1488 1490 1492 1494 1496 1498 1500 1503 1505 1508 1511 1513 1515 1517 1519 1522 1524 1528 1531 1533 1536 1538 1539 1541 1542 1544 1545 1546 1548 1548 1548 1549 1549 1550 1549 1548 1549 1548 1546 1545 1545 1543 1543
1490 1492 1494 1497 1500 1501 1504 1508 1509 1510 1512 1516 1518 1519 1521 1524 1525 1528 1531 1533 1535 1537 1539 1540 1540 1544 1545 1544 1546 1546 1545 1545 1546 1547 1546 1547 1546 1546 1544 1541 1541 1544 1542
1492 1494 1496 1498 1499 1502 1507 1509 1510 1512 1515 1517 1519 1522 1524 1526 1527 1529 1531 1532 1534 1536 1539 1541 1540 1541 1543 1543 1543 1543 1543 1542 1543 1543 1546 1546 1544 1542 1540 1539 1539 1541 1541
1495 1497 1500 1501 1503 1506 1508 1511 1513 1515 1517 1518 1522 1524 1526 1527 1528 1530 1532 1532 1533 1535 1536 1538 1539 1542 1541 1540 1541 1541 1541 1539 1540 1541 1540 1540 1538 1538 1537 1536 1538 1539 1538
1496 1499 1502 1504 1506 1509 1512 1514 1515 1516 1517 1521 1524 1525 1527 1527 1527 1529 1530 1531 1533 1534 1534 1537 1540 1539 1538 1537 1538 1540 1540 1539 1536 1538 1537 1536 1534 1533 1534 1536 1538 1538 1537
1496 1499 1501 1504 1507 1509 1511 1513 1515 1518 1520 1522 1525 1527 1527 1526 1527 1528 1529 1531 1532 1533 1535 1536 1537 1537 1535 1535 1536 1538 1537 1537 1536 1534 1533 1532 1531 1532 1533 1533 1533 1533 1532
1495 1498 1501 1504 1507 1509 1512 1514 1517 1519 1521 1523 1525 1525 1525 1526 1527 1528 1529 1531 1532 1534 1536 1537 1535 1533 1533 1533 1534 1535 1534 1534 1533 1533 1531 1531 1533 1533 1533 1532 1531 1530 1529
1493 1496 1500 1502 1504 1506 1509 1512 1514 1517 1520 1522 1524 1525 1526 1526 1528 1529 1530 1531 1533 1535 1536 1535 1532 1531 1531 1531 1532 1532 1533 1532 1532 1530 1530 1531 1532 1532 1531 1530 1529 1528 1527
1491 1495 1499 1503 1506 1508 1511 1513 1515 1517 1518 1520 1522 1524 1525 1526 1527 1528 1530 1531 1532 1533 1533 1531 1530 1529 1529 1529 1529 1530 1529 1529 1529 1529 1529 1530 1529 1529 1529 1528 1527 1526 1525
1489 1493 1497 1500 1503 1506 1508 1511 1513 1515 1517 1520 1522 1524 1525 1526 1528 1528 1529 1530 1530 1530 1529 1528 1528 1528 1527 1526 1526 1527 1527 1528 1529 1529 1528 1528 1528 1527 1527 1526 1525 1524 1522
1486 1490 1495 1499 1502 1505 1508 1511 1513 1515 1517 1519 1521 1522 1523 1525 1527 1528 1528 1529 1529 1529 1528 1527 1527 1526 1526 1525 1525 1526 1526 1526 1527 1527 1526 1526 1526 1526 1525 1524 1523 1521 1520
1482 1486 1490 1493 1497 1500 1504 1507 1511 1513 1514 1517 1519 1521 1522 1523 1524 1525 1526 1526 1526 1526 1526 1526 1525 1525 1525 1524 1524 1524 1524 1525 1525 1525 1525 1524 1524 1524 1523 1521 1520 1519 1517
1478 1481 1485 1489 1492 1496 1499 1501 1504 1508 1511 1514 1517 1518 1520 1521 1522 1523 1523 1523 1522 1522 1523 1524 1524 1524 1523 1522 1522 1522 1522 1523 1522 1522 1522 1522 1521 1521 1520 1519 1518 1517 1514
1475 1478 1481 1485 1489 1492 1495 1499 1501 1504 1506 1509 1512 1514 1516 1517 1519 1519 1520 1521 1520 1519 1520 1521 1521 1520 1520 1519 1520 1520 1520 1520 1520 1520 1520 1519 1519 1517 1517 1516 1515 1513 1511
1469 1472 1477 1481 1485 1488 1492 1495 1498 1500 1503 1505 1507 1509 1511 1513 1515 1517 1518 1518 1518 1517 1517 1518 1517 1517 1517 1517 1516 1517 1517 1517 1517 1517 1516 1516 1515 1515 1514 1513 1511 1510 1508
1463 1467 1471 1474 1478 1482 1485 1489 1492 1495 1499 1501 1504 1505 1507 1509 1511 1513 1515 1515 1516 1515 1515 1515 1514 1514 1514 1514 1513 1513 1513 1513 1513 1513 1513 1512 1512 1511 1510 1509 1508 1506 1504
1459 1463 1465 1469 1471 1475 1480 1484 1488 1492 1495 1497 1500 1503 1505 1506 1508 1510 1512 1512 1512 1512 1512 1511 1511 1510 1511 1511 1511 1510 1510 1510 1510 1509 1509 1509 1509 1508 1507 1506 1504 1502 1500
1453 1456 1460 1464 1467 1470 1474 1479 1482 1487 1490 1493 1496 1499 1501 1502 1504 1506 1507 1508 1508 1508 1508 1508 1507 1507 1507 1507 1507 1507 1507 1506 1506 1506 1506 1506 1506 1505 1504 1502 1501 1499 1497
1448 1452 1454 1459 1462 1466 1470 1474 1477 1482 1485 1489 1491 1494 1497 1498 1500 1502 1503 1503 1504 1505 1504 1504 1504 1504 1504 1503 1502 1502 1502 1502 1503 1503 1503 1502 1501 1501 1500 1499 1498 1496 1494
1444 1447 1449 1454 1457 1459 1463 1466 1471 1476 1480 1483 1486 1490 1493 1495 1496 1498 1498 1499 1500 1501 1501 1501 1501 1500 1500 1500 1499 1499 1499 1499 1499 1499 1498 1497 1497 1496 1496 1495 1493 1491 1489
1439 1442 1444 1447 1451 1454 1458 1462 1465 1469 1473 1478 1481 1485 1489 1491 1492 1493 1495 1496 1497 1498 1498 1498 1498 1498 1498 1498 1497 1497 1497 1497 1496 1496 1495 1494 1494 1494 1492 1491 1489 1487 1485
1435 1437 1440 1443 1447 1450 1453 1457 1460 1464 1469 1474 1479 1483 1485 1486 1488 1490 1491 1492 1493 1494 1494 1495 1495 1495 1495 1495 1495 1494 1494 1494 1494 1493 1492 1492 1492 1491 1489 1487 1485 1483 1481
Wind_Speed
9 12 13 14 14 13 14 15 14 13 12 14 21 23 26 28 27 27 25 24 20 18 19 14 12 15 15 16 20 23 27 25 22 21 18 15 14 14 14 15 17 20 19
12 10 12 13 13 15 16 14 13 13 13 13 12 11 13 17 22 26 27 25 19 18 18 17 20 23 24 23 26 21 20 19 16 13 12 12 13 13 15 18 20 21 21
11 12 15 15 15 13 13 11 10 10 11 11 10 11 11 10 11 12 13 16 18 19 20 20 19 19 19 18 17 14 10 10 10 10 11 11 14 15 17 19 20 19 17
13 13 13 13 11 10 12 11 11 11 10 11 12 12 11 9 9 9 10 11 11 12 12 13 13 15 15 13 11 11 10 10 10 10 10 12 14 17 16 14 14 13 13
12 14 16 16 15 14 14 12 11 11 12 11 11 10 9 8 7 8 8 9 10 11 12 11 10 9 10 9 9 9 9 9 10 11 12 12 10 10 11 12 12 12 8
15 14 15 15 15 14 12 12 12 12 12 10 10 10 10 9 9 9 7 7 7 7 8 9 9 9 10 10 10 10 11 11 10 10 9 10 7 8 9 11 9 6 7
15 15 15 15 14 14 15 14 13 12 12 11 10 8 8 8 8 7 7 7 8 7 8 8 8 9 9 10 12 12 11 10 11 10 6 7 8 11 12 8 4 7 11
17 16 15 15 15 15 15 14 14 14 13 12 10 9 8 8 8 8 8 7 8 9 9 9 9 10 13 10 8 5 5 5 5 5 11 14 11 9 6 7 9 9 7
17 16 15 15 16 16 16 15 14 13 11 10 9 7 8 8 7 7 7 7 8 9 9 11 11 9 14 11 10 8 6 6 11 8 11 13 13 10 8 9 4 8 6
17 17 16 15 14 14 14 13 11 10 10 9 8 7 6 6 6 6 5 4 4 5 7 10 11 12 13 10 7 7 8 11 11 9 10 10 7 5 4 4 5 4 8
18 18 17 15 15 14 15 14 14 12 11 10 9 6 4 4 5 5 4 3 3 3 4 3 7 9 6 6 8 8 8 11 9 10 5 3 2 2 2 3 5 5 6
20 20 19 18 18 17 17 16 15 13 12 10 9 7 6 4 5 4 5 5 5 4 4 4 10 6 7 7 5 9 8 8 8 6 4 5 3 4 5 6 8 7 8
23 22 21 18 16 15 15 15 13 12 12 11 10 9 8 6 5 4 3 3 2 3 4 8 7 5 7 8 9 8 11 9 9 8 6 6 7 8 8 9 10 10 10
25 23 21 20 18 17 16 15 14 14 13 12 12 10 9 8 8 6 6 5 5 4 6 6 5 6 5 7 4 7 11 10 7 6 7 8 9 9 8 10 12 11 12
26 24 23 20 19 18 16 16 16 14 13 13 13 12 11 10 9 7 6 4 4 6 9 5 3 3 3 3 4 7 9 9 7 9 10 11 9 9 9 11 12 13 14
28 27 27 26 24 23 20 19 18 17 15 14 13 12 12 11 8 8 8 8 9 10 6 5 4 5 5 6 7 7 8 9 10 11 10 10 11 11 12 13 12 14 17
32 30 29 28 26 27 25 23 21 19 17 16 15 14 13 10 10 9 9 8 9 8 5 5 5 6 7 7 7 9 9 9 9 9 10 11 11 12 11 12 13 17 18
33 31 30 29 29 27 26 24 22 21 20 18 18 17 15 12 10 9 9 8 9 9 7 8 7 9 9 7 8 8 9 9 9 10 10 11 12 13 13 13 16 17 16
35 35 33 30 30 29 27 25 24 22 20 19 19 18 16 13 11 10 10 9 9 9 7 9 11 9 8 10 11 12 12 13 12 11 12 14 12 12 14 16 15 12 13
35 36 34 33 32 32 30 29 27 25 22 20 18 17 15 15 13 8 9 9 9 10 10 11 10 9 8 10 9 9 9 9 10 12 13 14 13 13 12 11 12 14 16
34 36 35 34 34 33 32 31 29 26 24 21 18 15 12 12 10 8 11 12 11 11 11 11 11 9 8 9 9 9 9 10 9 9 9 8 9 9 10 13 15 16 13
32 34 36 36 35 34 32 31 30 27 25 22 19 17 15 14 9 13 15 15 12 12 12 12 11 10 10 10 9 11 13 13 8 8 8 9 10 11 12 12 12 14 16
30 32 33 34 35 34 32 31 31 28 26 23 21 18 18 14 17 15 14 15 13 12 12 12 11 10 10 9 9 9 8 6 8 9 10 11 11 9 10 12 14 14 16
25 28 30 29 31 32 32 31 30 28 27 26 22 20 19 21 17 15 15 14 13 13 12 11 11 9 8 8 7 5 5 7 9 9 10 10 10 8 12 15 15 16 17
22 23 25 25 26 27 27 27 28 29 29 26 25 22 23 19 16 15 14 14 13 13 12 11 10 9 8 8 7 7 8 7 9 9 10 9 11 13 16 17 18 19 18
19 22 22 21 20 21 22 24 28 28 29 28 22 18 17 15 15 14 13 13 13 12 12 11 10 9 9 9 8 8 9 10 11 11 11 12 13 15 17 19 19 19 20
Wind_Direction
116 121 120 122 131 139 151 151 162 159 172 179 185 194 204 204 207 206 203 208 213 228 228 222 222 205 212 245 259 260 272 273 269 270 266 257 247 249 257 261 274 282 285
123 112 120 125 133 144 147 147 142 146 147 155 161 173 184 198 205 214 217 217 217 228 236 231 238 251 258 255 266 269 267 268 258 253 249 244 243 252 265 275 281 285 288
130 126 117 111 110 114 119 119 129 128 134 139 153 162 161 163 175 181 190 198 209 225 235 240 244 253 258 260 259 259 239 232 236 246 249 250 257 267 276 284 290 294 295
143 132 126 118 120 131 136 140 140 140 135 138 136 135 138 151 162 176 191 205 213 226 234 236 239 248 249 239 224 224 231 238 247 251 256 265 272 278 285 291 287 293 301
146 139 136 131 128 126 122 126 127 129 135 133 133 140 144 162 175 192 209 224 235 238 240 236 225 217 217 216 226 234 248 257 266 272 273 275 278 279 282 285 300 304 341
144 141 135 138 142 139 140 138 135 130 126 131 135 132 138 144 150 155 165 175 184 190 198 200 204 215 223 229 238 245 253 262 271 272 267 272 274 284 264 270 276 328 307
160 153 150 152 149 147 147 144 137 137 145 145 140 147 153 156 153 158 169 178 188 197 210 217 216 222 231 240 250 257 258 262 260 251 256 259 235 259 270 281 263 282 281
158 152 151 151 150 149 149 153 154 154 149 145 156 166 169 173 175 180 191 201 209 211 218 229 234 234 233 220 251 257 267 301 259 229 239 245 257 262 286 297 273 273 305
155 155 155 154 150 152 151 146 144 146 150 158 170 177 185 181 181 188 203 215 225 228 228 227 225 228 247 239 240 235 223 239 272 282 283 287 283 284 276 272 306 271 291
165 166 167 166 169 162 159 155 154 158 163 162 155 163 175 167 172 179 186 200 214 233 235 249 238 229 254 248 206 230 216 240 263 301 317 322 324 308 294 251 257 268 277
170 168 167 169 165 171 171 174 172 173 169 164 167 160 166 170 169 174 185 172 201 196 219 229 263 236 236 229 210 231 232 237 249 282 280 295 313 302 305 320 311 303 297
178 179 181 185 187 187 187 183 183 182 180 179 179 176 183 199 188 195 200 208 196 196 199 210 245 239 212 229 219 240 246 246 269 272 249 253 237 249 260 279 282 288 279
189 191 192 191 192 191 191 189 187 188 189 188 187 194 197 202 232 254 253 255 233 167 222 239 283 259 259 258 259 252 260 265 274 247 236 245 262 274 291 298 301 305 306
195 195 196 198 197 199 199 201 205 203 198 199 198 198 215 216 223 244 247 265 274 258 295 311 295 302 295 259 263 236 247 267 273 247 262 272 289 294 293 300 305 307 306
196 198 200 201 203 203 207 210 209 211 215 214 214 214 220 223 228 241 249 245 254 234 256 272 279 291 307 303 247 244 261 275 264 264 265 275 281 290 292 292 297 295 298
197 200 206 206 208 209 208 212 213 214 219 221 222 222 225 228 244 245 249 255 257 266 287 271 260 271 278 275 265 272 276 277 269 272 273 278 282 282 285 293 304 305 310
206 209 211 210 214 213 212 217 215 218 221 221 223 226 231 232 238 246 255 263 269 274 275 257 267 268 273 281 269 273 278 280 279 276 277 282 290 291 288 288 296 301 309
210 214 218 218 218 219 220 223 223 223 223 223 223 225 227 230 236 244 255 260 258 271 246 255 257 265 264 263 263 266 267 268 270 276 279 279 280 284 293 292 293 301 305
213 218 220 224 222 227 226 223 223 226 222 222 220 221 221 228 231 238 252 254 258 268 277 263 260 263 266 264 265 261 259 261 266 268 273 284 287 284 284 291 298 300 307
219 224 227 228 225 227 227 225 221 221 218 221 223 218 215 218 223 235 253 252 235 252 253 262 271 260 263 259 273 277 280 278 277 270 272 275 280 284 288 293 293 294 300
222 223 230 229 230 230 229 227 225 223 220 222 224 224 217 214 210 250 272 254 257 264 268 269 272 269 260 263 271 269 272 274 274 281 282 282 283 286 289 289 296 302 309
226 229 230 230 232 232 230 229 227 224 221 222 221 220 213 208 229 250 258 260 267 272 272 272 272 273 269 265 255 257 260 265 269 271 273 274 280 289 294 305 311 311 311
230 230 233 230 231 235 232 229 227 223 222 222 224 217 215 211 244 253 254 263 267 271 273 274 275 276 278 274 270 265 267 253 250 257 263 269 276 282 295 301 304 306 309
228 230 236 233 232 232 231 227 224 224 223 224 221 214 210 244 255 236 251 259 266 267 270 271 280 280 274 274 282 277 256 252 264 278 286 293 294 287 289 299 303 305 299
225 227 230 230 229 230 228 226 222 219 218 219 215 208 242 256 236 236 249 257 261 264 268 268 276 276 266 268 270 266 267 274 282 286 291 300 304 306 304 304 302 303 302
222 221 224 226 227 221 220 216 214 214 213 209 205 250 261 235 227 242 249 258 260 260 262 264 269 269 264 269 274 275 278 280 287 291 290 296 299 297 297 302 304 302 301